Weather History for Warrenton, VA

Change the Weather History Date:

Saturday, July 20, 2013

  Actual Average (KHEF) Record (KHEF)
Temperature  
Mean Temperature 86 °F -  
Max Temperature 95 °F 82 °F 93 °F (2008)
Min Temperature 76 °F 62 °F 57 °F (2001)
Cooling Degree Days 20    
Growing Degree Days 36 (Base 50)    
Moisture  
Dew Point 78 °F    
Average Humidity 84    
Maximum Humidity 100    
Minimum Humidity 58    
Precipitation  
Precipitation 0.00 in - - ()
Sea Level Pressure  
Sea Level Pressure 29.88 in    
Wind  
Wind Speed 3 mph (SW)    
Max Wind Speed 10 mph    
Max Gust Speed 16 mph    
Visibility 10 miles    
Events      
Averages and records for this station are not official NWS values.
T = Trace of Precipitation, MM = Missing Value Source: NWS Daily Summary

Daily Weather History Graph

Daily Weather History Graph

Search for Another Location

Airport:

Trip Planner

Search our weather history database for the weather conditions in past years. The results will help you decide how hot, cold, wet, or windy it might be!

Date:

Astronomy

Jul. 20, 2013 Rise Set
Actual Time 6:02 AM EDT 8:31 PM EDT
Civil Twilight 5:32 AM EDT 9:01 PM EDT
Nautical Twilight 4:54 AM EDT 9:39 PM EDT
Astronomical Twilight 4:12 AM EDT 10:21 PM EDT
Moon 6:33 PM EDT (7/20) 3:40 AM EDT (7/20)
Length of Visible Light 15h 29m
Length of Day
14h 28m
Waxing Gibbous, 93% of the Moon is Illuminated
Jul 20
Waxing Gibbous
Jul 22
Full
Jul 29
Last Quarter
Aug 6
New
Aug 14
First Quarter

Hourly Weather History & Observations

Time (EDT) Temp. Heat Index Dew Point Humidity Pressure Visibility Wind Dir Wind Speed Gust Speed Precip Events Conditions
12:15 AM 79.5 °F - 76.3 °F 90% 29.90 in 10.0 mi Calm Calm - N/A   Clear
12:35 AM 79.0 °F - 76.3 °F 91% 29.89 in 10.0 mi Calm Calm - N/A   Clear
12:55 AM 78.1 °F - 76.1 °F 94% 29.89 in 10.0 mi Calm Calm - N/A   Clear
1:15 AM 77.9 °F - 76.3 °F 95% 29.90 in 10.0 mi Calm Calm - N/A   Clear
1:35 AM 77.4 °F - 76.5 °F 97% 29.90 in 10.0 mi Calm Calm - N/A   Clear
1:55 AM 76.5 °F - 76.3 °F 99% 29.91 in 10.0 mi Calm Calm - N/A   Clear
2:15 AM 76.5 °F - 76.5 °F 100% 29.91 in 10.0 mi Calm Calm - N/A   Clear
2:35 AM 77.2 °F - 77.2 °F 100% 29.91 in 10.0 mi Calm Calm - N/A   Clear
2:55 AM 77.0 °F - 77.0 °F 100% 29.91 in 10.0 mi Calm Calm - N/A   Clear
3:15 AM 76.5 °F - 76.5 °F 100% 29.90 in 7.0 mi Calm Calm - N/A   Clear
3:35 AM 76.6 °F - 76.6 °F 100% 29.90 in 10.0 mi Calm Calm - N/A   Clear
3:55 AM 76.6 °F - 76.6 °F 100% 29.89 in 7.0 mi Calm Calm - N/A   Clear
4:15 AM 76.6 °F - 76.6 °F 100% 29.88 in 7.0 mi SW 3.5 mph - N/A   Clear
4:35 AM 77.0 °F - 77.0 °F 100% 29.87 in 5.0 mi Calm Calm - N/A   Clear
4:55 AM 77.0 °F - 77.0 °F 100% 29.87 in 5.0 mi South 3.5 mph - N/A   Clear
5:15 AM 77.4 °F - 77.4 °F 100% 29.87 in 7.0 mi South 6.9 mph - N/A   Clear
5:35 AM 77.9 °F - 77.9 °F 100% 29.88 in 10.0 mi SSW 4.6 mph - N/A   Clear
5:55 AM 78.1 °F - 77.9 °F 99% 29.89 in 10.0 mi SSW 4.6 mph - N/A   Clear
6:15 AM 77.9 °F - 77.9 °F 100% 29.90 in 10.0 mi SW 3.5 mph - N/A   Clear
6:35 AM 77.9 °F - 77.7 °F 99% 29.91 in 10.0 mi SSW 3.5 mph - N/A   Clear
6:55 AM 77.9 °F - 77.7 °F 99% 29.91 in 10.0 mi SW 3.5 mph - N/A   Clear
7:15 AM 77.9 °F - 77.5 °F 99% 29.91 in 10.0 mi SW 3.5 mph - N/A   Clear
7:35 AM 78.1 °F - 77.9 °F 99% 29.91 in 10.0 mi SSW 3.5 mph - N/A   Clear
7:55 AM 78.4 °F - 77.9 °F 98% 29.91 in 10.0 mi SSW 4.6 mph - N/A   Clear
8:15 AM 78.8 °F - 78.1 °F 98% 29.91 in 10.0 mi SSW 4.6 mph - N/A   Clear
8:35 AM 79.5 °F - 78.6 °F 97% 29.91 in 10.0 mi SSW 3.5 mph - N/A   Clear
8:55 AM 80.2 °F 87.1 °F 78.6 °F 95% 29.91 in 10.0 mi SW 4.6 mph - N/A   Clear
9:15 AM 81.3 °F 90.2 °F 79.2 °F 93% 29.91 in 10.0 mi SSW 4.6 mph - N/A   Clear
9:35 AM 82.4 °F 92.7 °F 79.3 °F 90% 29.91 in 10.0 mi SSW 5.8 mph - N/A   Clear
9:55 AM 83.1 °F 94.3 °F 79.3 °F 88% 29.91 in 10.0 mi SSW 5.8 mph - N/A   Clear
10:15 AM 84.0 °F 96.4 °F 79.3 °F 86% 29.93 in 10.0 mi SW 4.6 mph - N/A   Scattered Clouds
10:35 AM 85.8 °F 100.3 °F 79.9 °F 82% 29.92 in 10.0 mi SSW 5.8 mph - N/A   Mostly Cloudy
10:55 AM 87.1 °F 102.1 °F 79.3 °F 78% 29.93 in 10.0 mi SW 9.2 mph - N/A   Scattered Clouds
11:15 AM 87.3 °F 103.8 °F 80.2 °F 80% 29.92 in 10.0 mi SSW 4.6 mph - N/A   Mostly Cloudy
11:35 AM 88.0 °F 104.9 °F 80.4 °F 78% 29.92 in 10.0 mi SW 6.9 mph - N/A   Mostly Cloudy
11:55 AM 88.3 °F 106.1 °F 80.6 °F 78% 29.92 in 10.0 mi SW 8.1 mph - N/A   Mostly Cloudy
12:15 PM 89.2 °F 107.0 °F 80.4 °F 75% 29.91 in 10.0 mi SW 5.8 mph - N/A   Scattered Clouds
12:35 PM 89.4 °F 108.3 °F 81.1 °F 76% 29.91 in 10.0 mi SW 4.6 mph - N/A   Clear
12:55 PM 92.1 °F 109.4 °F 79.3 °F 66% 29.90 in 10.0 mi WSW 6.9 mph - N/A   Clear
1:15 PM 92.5 °F 108.9 °F 78.8 °F 64% 29.90 in 10.0 mi SW 5.8 mph - N/A   Clear
1:35 PM 93.2 °F 111.9 °F 79.9 °F 65% 29.90 in 10.0 mi West 3.5 mph - N/A   Clear
1:55 PM 93.9 °F 111.6 °F 79.2 °F 62% 29.89 in 10.0 mi West 4.6 mph - N/A   Clear
2:15 PM 94.6 °F 114.6 °F 80.1 °F 63% 29.89 in 10.0 mi WSW 4.6 mph - N/A   Clear
2:35 PM 93.7 °F 111.0 °F 79.0 °F 62% 29.88 in 10.0 mi WSW 8.1 mph - N/A   Clear
2:55 PM 93.6 °F 113.0 °F 80.4 °F 65% 29.87 in 10.0 mi South 9.2 mph - N/A   Scattered Clouds
3:15 PM 93.9 °F 113.3 °F 80.2 °F 64% 29.87 in 10.0 mi SSW 6.9 mph - N/A   Mostly Cloudy
3:35 PM 93.4 °F 110.8 °F 79.2 °F 63% 29.86 in 10.0 mi Calm Calm - N/A   Mostly Cloudy
3:55 PM 94.5 °F 112.3 °F 79.3 °F 61% 29.85 in 10.0 mi West 3.5 mph - N/A   Scattered Clouds
4:15 PM 95.4 °F 112.4 °F 78.6 °F 58% 29.84 in 10.0 mi SSW 3.5 mph - N/A   Scattered Clouds
4:35 PM 95.0 °F 113.1 °F 79.3 °F 60% 29.84 in 10.0 mi SSW 5.8 mph - N/A   Clear
4:55 PM 94.1 °F 115.6 °F 81.3 °F 66% 29.83 in 10.0 mi SSW 4.6 mph - N/A   Scattered Clouds
5:15 PM 93.6 °F 113.9 °F 80.6 °F 66% 29.82 in 10.0 mi SSW 5.8 mph - N/A   Scattered Clouds
5:35 PM 92.7 °F 111.8 °F 80.2 °F 67% 29.82 in 10.0 mi South 5.8 mph - N/A   Clear
5:55 PM 91.8 °F 112.2 °F 81.3 °F 71% 29.83 in 10.0 mi South 9.2 mph - N/A   Mostly Cloudy
6:15 PM 90.5 °F 111.2 °F 81.7 °F 75% 29.83 in 10.0 mi South 10.4 mph - N/A   Mostly Cloudy
6:35 PM 89.4 °F 109.0 °F 81.5 °F 77% 29.82 in 10.0 mi South 5.8 mph - N/A   Scattered Clouds
6:55 PM 88.2 °F 107.5 °F 81.5 °F 81% 29.83 in 10.0 mi SSW 8.1 mph - N/A   Clear
7:15 PM 88.9 °F 108.6 °F 81.5 °F 79% 29.84 in 10.0 mi SSW 5.8 mph - N/A   Clear
7:35 PM 88.0 °F 105.5 °F 80.6 °F 79% 29.85 in 10.0 mi SSW 9.2 mph 16.1 mph N/A   Clear
7:55 PM 86.9 °F 100.9 °F 78.8 °F 77% 29.85 in 10.0 mi SSW 6.9 mph - N/A   Clear
8:15 PM 84.7 °F 96.1 °F 77.9 °F 80% 29.85 in 10.0 mi SSW 3.5 mph - N/A   Clear
8:35 PM 83.3 °F 92.1 °F 76.5 °F 80% 29.85 in 10.0 mi SW 6.9 mph - N/A   Clear
8:55 PM 82.4 °F 89.2 °F 74.8 °F 78% 29.85 in 10.0 mi SSW 5.8 mph - N/A   Clear
9:15 PM 81.1 °F 86.6 °F 73.9 °F 79% 29.85 in 10.0 mi SW 8.1 mph - N/A   Clear
9:35 PM 80.6 °F 85.5 °F 73.8 °F 80% 29.85 in 10.0 mi SSW 4.6 mph - N/A   Clear
9:55 PM 79.7 °F - 74.1 °F 83% 29.86 in 10.0 mi SSW 3.5 mph - N/A   Clear
10:15 PM 78.8 °F - 74.3 °F 86% 29.88 in 10.0 mi Calm Calm - N/A   Clear
10:35 PM 77.9 °F - 74.5 °F 89% 29.88 in 10.0 mi SSW 3.5 mph - N/A   Clear
10:55 PM 78.1 °F - 74.5 °F 89% 29.89 in 10.0 mi Calm Calm - N/A   Clear
11:15 PM 77.0 °F - 74.7 °F 92% 29.89 in 10.0 mi SW 3.5 mph - N/A   Clear
11:35 PM 77.0 °F - 74.7 °F 92% 29.90 in 10.0 mi Calm Calm - N/A   Clear
11:55 PM 76.3 °F - 75.2 °F 96% 29.90 in 10.0 mi Calm Calm - N/A   Scattered Clouds